{"data":{"norad_id":63282,"epoch":"2026-05-25T02:03:09.754848Z","epoch_age_seconds":77783,"freshness":"FRESH","line1":"1 63282U 25053T   26145.08552957  .00012633  00000+0  46767-3 0  9992","line2":"2 63282  42.9981 170.6232 0000995 297.8235  62.2516 15.27589230 67878","mean_motion":15.2758923,"eccentricity":9.95e-5,"inclination_deg":42.9981,"raan_deg":170.6232,"arg_perigee_deg":297.8235,"mean_anomaly_deg":62.2516,"bstar":0.00046767,"rev_number":6787,"period_min":94.266179135081,"perigee_km":482.33877297175,"apogee_km":483.70414350493,"semimajor_km":6861.1584582383,"source":"CELESTRAK","updated_at":"2026-05-25T13:38:19.927819Z"}}